Location: Puketoi
(40.5833°S, 176.0167°E)
Time: 14:36:23
(UTC+00:00)

Meteor 2-16 Rocket - Pass Details

Date: 08 February 2023
Orbit: 941 x 957 km, 82.6° (Epoch: 22 March)

Event Time Altitude Azimuth Distance (km) Brightness Sun altitude
Rises 15:18:52 0° 188° (S) 3,643 8.0 -22.1°
Reaches altitude 10° 15:21:22 10° 187° (S) 2,693 7.3 -21.7°
Maximum altitude 15:27:33 87° 99° (E) 961 4.4 -20.9°
Enters shadow 15:32:40 16° 8° (N) 2,288 6.1 -20.2°
